| time (UTC) | temp C | wind direction | speed KPH | gust KPH | rain 1hr cm | rain 24hr cm | rain mn cm | humidity % | barometer mb |
| 20260507032507 | 7 | 271 | 0.0 | 6.4 | 0.00 | 0.00 | 0.00 | 51 | 1015.6 |
| 20260507032007 | 7 | 269 | 0.0 | 6.4 | 0.00 | 0.00 | 0.00 | 50 | 1015.6 |
| 20260507031526 | 13 | 333 | 0.0 | 0.0 | 0.00 | 0.03 | 0.03 | 50 | 1017.4 |
| 20260507031007 | 8 | 290 | 1.6 | 9.7 | 0.00 | 0.00 | 0.00 | 48 | 1015.7 |
| 20260507030504 | 8 | 274 | 1.6 | 8.0 | 0.00 | 0.00 | 0.00 | 49 | 1015.7 |
| 20260507030027 | 13 | 333 | 0.0 | 0.0 | 0.00 | 0.03 | 0.03 | 51 | 1017.4 |
| 20260507030017 | 8 | 284 | 1.6 | 12.9 | 0.00 | 0.00 | 0.00 | 49 | 1015.7 |
| 20260507025505 | 8 | 338 | 3.2 | 12.9 | 0.00 | 0.00 | 0.00 | 48 | 1015.5 |
| 20260507025004 | 8 | 271 | 1.6 | 12.9 | 0.00 | 0.00 | 0.00 | 47 | 1015.7 |
| 20260507024530 | 8 | 284 | 4.8 | 12.9 | 0.00 | 0.00 | 0.00 | 47 | 1015.6 |
| 20260507024520 | 13 | 333 | 0.0 | 0.0 | 0.00 | 0.03 | 0.03 | 53 | 1017.1 |
| 20260507024004 | 8 | 309 | 0.0 | 9.7 | 0.00 | 0.00 | 0.00 | 47 | 1015.6 |
| 20260507023508 | 8 | 280 | 1.6 | 9.7 | 0.00 | 0.00 | 0.00 | 46 | 1015.6 |
| 20260507023023 | 13 | 333 | 0.0 | 0.0 | 0.00 | 0.03 | 0.03 | 54 | 1016.6 |
| 20260507023018 | 8 | 267 | 3.2 | 8.0 | 0.00 | 0.00 | 0.00 | 46 | 1015.5 |
| 20260507022508 | 8 | 325 | 3.2 | 8.0 | 0.00 | 0.00 | 0.00 | 46 | 1015.4 |
| 20260507022010 | 8 | 315 | 1.6 | 6.4 | 0.00 | 0.00 | 0.00 | 46 | 1015.4 |
| 20260507021524 | 8 | 252 | 3.2 | 9.7 | 0.00 | 0.00 | 0.00 | 45 | 1015.3 |
| 20260507021513 | 13 | 333 | 0.0 | 1.6 | 0.00 | 0.03 | 0.03 | 55 | 1016.4 |
| 20260507021009 | 8 | 291 | 1.6 | 9.7 | 0.00 | 0.00 | 0.00 | 45 | 1015.1 |
| 20260507020507 | 8 | 338 | 1.6 | 11.3 | 0.00 | 0.00 | 0.00 | 44 | 1015.1 |
| 20260507020028 | 8 | 286 | 3.2 | 11.3 | 0.00 | 0.00 | 0.00 | 44 | 1015.0 |
| 20260507020015 | 14 | 324 | 0.0 | 0.0 | 0.00 | 0.03 | 0.03 | 55 | 1016.1 |
| 20260507015514 | 8 | 275 | 3.2 | 16.1 | 0.00 | 0.00 | 0.00 | 44 | 1014.9 |
| 20260507015004 | 8 | 288 | 6.4 | 16.1 | 0.00 | 0.00 | 0.00 | 43 | 1014.9 |
| 20260507014528 | 9 | 302 | 6.4 | 14.5 | 0.00 | 0.00 | 0.00 | 43 | 1014.8 |
| 20260507014510 | 14 | 334 | 0.0 | 0.0 | 0.00 | 0.03 | 0.03 | 55 | 1015.8 |
| 20260507014004 | 9 | 280 | 4.8 | 19.3 | 0.00 | 0.00 | 0.00 | 43 | 1014.7 |
| 20260507013504 | 9 | 265 | 3.2 | 19.3 | 0.00 | 0.00 | 0.00 | 43 | 1014.7 |
| 20260507013017 | 9 | 266 | 9.7 | 19.3 | 0.00 | 0.00 | 0.00 | 42 | 1014.7 |
| 20260507013002 | 15 | 348 | 0.0 | 0.0 | 0.00 | 0.03 | 0.03 | 54 | 1015.4 |
| 20260507012509 | 9 | 258 | 4.8 | 19.3 | 0.00 | 0.00 | 0.00 | 42 | 1014.7 |
| 20260507012008 | 9 | 200 | 8.0 | 17.7 | 0.00 | 0.00 | 0.00 | 42 | 1014.6 |
| 20260507011535 | 10 | 240 | 9.7 | 17.7 | 0.00 | 0.00 | 0.00 | 42 | 1014.7 |
| 20260507011504 | 15 | 336 | 0.0 | 3.2 | 0.00 | 0.03 | 0.03 | 53 | 1015.1 |
| 20260507011008 | 10 | 259 | 8.0 | 17.7 | 0.00 | 0.00 | 0.00 | 42 | 1014.7 |
| 20260507010510 | 10 | 273 | 9.7 | 17.7 | 0.00 | 0.00 | 0.00 | 42 | 1014.5 |
| 20260507010112 | 16 | 345 | 0.0 | 0.0 | 0.00 | 0.03 | 0.03 | 53 | 1014.8 |
| 20260507010025 | 10 | 261 | 8.0 | 14.5 | 0.00 | 0.00 | 0.00 | 42 | 1014.5 |
| 20260507005509 | 10 | 280 | 6.4 | 20.9 | 0.00 | 0.00 | 0.00 | 41 | 1014.5 |
| 20260507005016 | 10 | 37 | 8.0 | 24.1 | 0.00 | 0.00 | 0.00 | 41 | 1014.4 |
| 20260507004612 | 16 | 322 | 0.0 | 0.0 | 0.00 | 0.03 | 0.03 | 52 | 1014.8 |
| 20260507004526 | 10 | 269 | 12.9 | 29.0 | 0.00 | 0.00 | 0.00 | 41 | 1014.6 |
| 20260507004005 | 10 | 277 | 6.4 | 29.0 | 0.00 | 0.00 | 0.00 | 41 | 1014.4 |
| 20260507003505 | 10 | 287 | 8.0 | 27.4 | 0.00 | 0.00 | 0.00 | 41 | 1014.4 |
| 20260507003058 | 16 | 300 | 1.6 | 9.7 | 0.00 | 0.03 | 0.03 | 52 | 1014.6 |
| 20260507003018 | 11 | 255 | 11.3 | 29.0 | 0.00 | 0.00 | 0.00 | 40 | 1014.5 |
| 20260507002505 | 11 | 272 | 12.9 | 29.0 | 0.00 | 0.00 | 0.00 | 40 | 1014.5 |
| 20260507002008 | 11 | 285 | 14.5 | 25.7 | 0.00 | 0.00 | 0.00 | 40 | 1014.4 |
| 20260507001556 | 16 | 281 | 1.6 | 9.7 | 0.00 | 0.03 | 0.03 | 52 | 1014.6 |
| 20260507001519 | 11 | 304 | 12.9 | 27.4 | 0.00 | 0.00 | 0.00 | 40 | 1014.2 |
| 20260507001005 | 11 | 267 | 9.7 | 27.4 | 0.00 | 0.00 | 0.00 | 40 | 1014.0 |
| 20260507000508 | 11 | 229 | 11.3 | 22.5 | 0.00 | 0.00 | 0.00 | 39 | 1014.1 |
| 20260507000054 | 16 | 290 | 4.8 | 11.3 | 0.00 | 0.03 | 0.03 | 52 | 1014.6 |
| 20260507000023 | 11 | 291 | 6.4 | 22.5 | 0.00 | 0.00 | 0.00 | 40 | 1013.9 |
| 20260506235509 | 11 | 279 | 4.8 | 30.6 | 0.00 | 0.00 | 0.00 | 40 | 1014.1 |
| 20260506235009 | 11 | 259 | 14.5 | 30.6 | 0.00 | 0.00 | 0.00 | 39 | 1014.1 |
| 20260506234553 | 16 | 322 | 1.6 | 9.7 | 0.00 | 0.03 | 0.03 | 52 | 1014.5 |
| 20260506234528 | 11 | 11 | 11.3 | 29.0 | 0.00 | 0.00 | 0.00 | 40 | 1013.9 |
| 20260506234011 | 11 | 247 | 14.5 | 29.0 | 0.00 | 0.00 | 0.00 | 39 | 1013.8 |
| 20260506233510 | 11 | 282 | 11.3 | 24.1 | 0.00 | 0.00 | 0.00 | 39 | 1013.8 |
| 20260506233055 | 16 | 355 | 4.8 | 11.3 | 0.00 | 0.03 | 0.03 | 51 | 1014.4 |
| 20260506233026 | 12 | 234 | 12.9 | 29.0 | 0.00 | 0.00 | 0.00 | 39 | 1013.9 |
| 20260506232508 | 12 | 332 | 9.7 | 29.0 | 0.00 | 0.00 | 0.00 | 38 | 1013.8 |
| 20260506232005 | 12 | 229 | 8.0 | 22.5 | 0.00 | 0.00 | 0.00 | 39 | 1013.9 |
| 20260506231547 | 16 | 300 | 4.8 | 9.7 | 0.00 | 0.03 | 0.03 | 52 | 1014.2 |
| 20260506231521 | 12 | 262 | 14.5 | 25.7 | 0.00 | 0.00 | 0.00 | 38 | 1013.8 |
| 20260506231009 | 12 | 275 | 12.9 | 25.7 | 0.00 | 0.00 | 0.00 | 39 | 1013.8 |
| 20260506230505 | 12 | 279 | 11.3 | 25.7 | 0.00 | 0.00 | 0.00 | 39 | 1013.6 |
| 20260506230044 | 16 | 322 | 1.6 | 9.7 | 0.00 | 0.03 | 0.03 | 51 | 1013.8 |
| 20260506230028 | 12 | 225 | 8.0 | 27.4 | 0.00 | 0.00 | 0.00 | 39 | 1013.7 |
| 20260506225506 | 12 | 303 | 12.9 | 27.4 | 0.00 | 0.00 | 0.00 | 38 | 1013.6 |
| 20260506225012 | 12 | 230 | 6.4 | 24.1 | 0.00 | 0.00 | 0.00 | 40 | 1013.5 |
| 20260506224542 | 16 | 302 | 4.8 | 11.3 | 0.00 | 0.03 | 0.03 | 51 | 1013.9 |
| 20260506224524 | 12 | 259 | 11.3 | 24.1 | 0.00 | 0.00 | 0.00 | 40 | 1013.6 |
| 20260506224012 | 12 | 252 | 4.8 | 27.4 | 0.00 | 0.00 | 0.00 | 40 | 1013.4 |
| 20260506223507 | 12 | 275 | 12.9 | 27.4 | 0.00 | 0.00 | 0.00 | 39 | 1013.4 |
| 20260506223039 | 16 | 349 | 4.8 | 12.9 | 0.00 | 0.03 | 0.03 | 51 | 1013.5 |
| 20260506223026 | 12 | 305 | 11.3 | 27.4 | 0.00 | 0.00 | 0.00 | 39 | 1013.4 |
| 20260506222509 | 12 | 291 | 14.5 | 27.4 | 0.00 | 0.00 | 0.00 | 39 | 1013.5 |
| 20260506222015 | 12 | 271 | 12.9 | 24.1 | 0.00 | 0.00 | 0.00 | 38 | 1013.4 |
| 20260506221538 | 16 | 330 | 6.4 | 14.5 | 0.00 | 0.03 | 0.03 | 51 | 1013.5 |
| 20260506221528 | 12 | 296 | 14.5 | 24.1 | 0.00 | 0.00 | 0.00 | 39 | 1013.4 |
| 20260506221007 | 12 | 315 | 9.7 | 40.2 | 0.00 | 0.00 | 0.00 | 40 | 1013.8 |
| 20260506220503 | 12 | 279 | 16.1 | 40.2 | 0.00 | 0.00 | 0.00 | 39 | 1013.4 |
| 20260506220039 | 16 | 307 | 4.8 | 9.7 | 0.00 | 0.03 | 0.03 | 51 | 1013.9 |
| 20260506220022 | 12 | 32 | 8.0 | 22.5 | 0.00 | 0.00 | 0.00 | 40 | 1013.3 |
| 20260506215506 | 12 | 234 | 9.7 | 22.5 | 0.00 | 0.00 | 0.00 | 40 | 1013.3 |
| 20260506215007 | 12 | 279 | 4.8 | 27.4 | 0.00 | 0.00 | 0.00 | 41 | 1013.2 |
| 20260506214538 | 16 | 300 | 4.8 | 14.5 | 0.00 | 0.03 | 0.03 | 51 | 1013.6 |
| 20260506214523 | 12 | 304 | 14.5 | 27.4 | 0.00 | 0.00 | 0.00 | 38 | 1013.1 |
| 20260506214007 | 13 | 259 | 11.3 | 27.4 | 0.00 | 0.00 | 0.00 | 38 | 1013.1 |
| 20260506213507 | 13 | 253 | 9.7 | 22.5 | 0.00 | 0.00 | 0.00 | 38 | 1013.1 |
| 20260506213033 | 16 | 309 | 3.2 | 12.9 | 0.00 | 0.03 | 0.03 | 49 | 1014.0 |
| 20260506213024 | 13 | 257 | 11.3 | 25.7 | 0.00 | 0.00 | 0.00 | 38 | 1013.0 |
| 20260506212506 | 13 | 239 | 12.9 | 25.7 | 0.00 | 0.00 | 0.00 | 38 | 1012.9 |
| 20260506212010 | 12 | 304 | 9.7 | 20.9 | 0.00 | 0.00 | 0.00 | 40 | 1013.0 |
| 20260506211532 | 15 | 351 | 3.2 | 9.7 | 0.00 | 0.03 | 0.03 | 49 | 1014.3 |
| 20260506211530 | 12 | 250 | 9.7 | 25.7 | 0.00 | 0.00 | 0.00 | 39 | 1013.1 |
| 20260506211004 | 12 | 288 | 11.3 | 25.7 | 0.00 | 0.00 | 0.00 | 39 | 1013.1 |
| 20260506210507 | 12 | 267 | 9.7 | 25.7 | 0.00 | 0.00 | 0.00 | 39 | 1013.1 |
| 20260506210026 | 15 | 331 | 1.6 | 11.3 | 0.00 | 0.03 | 0.03 | 50 | 1014.1 |
| 20260506210016 | 12 | 317 | 14.5 | 25.7 | 0.00 | 0.00 | 0.00 | 37 | 1013.1 |
| 20260506205508 | 13 | 280 | 11.3 | 25.7 | 0.00 | 0.00 | 0.00 | 37 | 1013.0 |
| 20260506205006 | 13 | 221 | 6.4 | 19.3 | 0.00 | 0.00 | 0.00 | 37 | 1012.9 |
| 20260506204524 | 15 | 304 | 4.8 | 12.9 | 0.00 | 0.03 | 0.03 | 47 | 1014.1 |
| 20260506204505 | 13 | 281 | 8.0 | 22.5 | 0.00 | 0.00 | 0.00 | 35 | 1012.8 |
| 20260506204003 | 13 | 263 | 11.3 | 22.5 | 0.00 | 0.00 | 0.00 | 34 | 1013.0 |
| 20260506203503 | 13 | 256 | 9.7 | 27.4 | 0.00 | 0.00 | 0.00 | 33 | 1013.1 |
| 20260506203022 | 14 | 301 | 4.8 | 11.3 | 0.00 | 0.03 | 0.03 | 48 | 1014.4 |
| 20260506203010 | 13 | 219 | 11.3 | 29.0 | 0.00 | 0.00 | 0.00 | 33 | 1013.1 |
| 20260506202503 | 13 | 237 | 11.3 | 29.0 | 0.00 | 0.00 | 0.00 | 34 | 1013.0 |
| 20260506202003 | 13 | 233 | 11.3 | 25.7 | 0.00 | 0.00 | 0.00 | 35 | 1013.1 |
| 20260506201521 | 14 | 308 | 6.4 | 12.9 | 0.00 | 0.03 | 0.03 | 46 | 1014.7 |
| 20260506201512 | 13 | 296 | 9.7 | 25.7 | 0.00 | 0.00 | 0.00 | 33 | 1013.1 |
| 20260506201003 | 14 | 231 | 12.9 | 25.7 | 0.00 | 0.00 | 0.00 | 33 | 1013.2 |
| 20260506200506 | 14 | 198 | 14.5 | 25.7 | 0.00 | 0.00 | 0.00 | 33 | 1013.3 |
| 20260506200021 | 13 | 255 | 4.8 | 14.5 | 0.00 | 0.03 | 0.03 | 46 | 1014.6 |
| 20260506200016 | 14 | 283 | 11.3 | 27.4 | 0.00 | 0.00 | 0.00 | 32 | 1013.3 |
| 20260506195504 | 13 | 220 | 11.3 | 27.4 | 0.00 | 0.00 | 0.00 | 33 | 1013.6 |
| 20260506195007 | 13 | 261 | 9.7 | 29.0 | 0.00 | 0.00 | 0.00 | 35 | 1013.4 |
| 20260506194522 | 13 | 256 | 11.3 | 29.0 | 0.00 | 0.00 | 0.00 | 35 | 1013.6 |
| 20260506194515 | 13 | 293 | 8.0 | 16.1 | 0.00 | 0.03 | 0.03 | 45 | 1014.5 |
| 20260506194006 | 13 | 290 | 14.5 | 27.4 | 0.00 | 0.00 | 0.00 | 35 | 1013.6 |
| 20260506193505 | 12 | 298 | 8.0 | 22.5 | 0.00 | 0.00 | 0.00 | 38 | 1013.5 |
| 20260506193012 | 13 | 277 | 8.0 | 19.3 | 0.00 | 0.03 | 0.03 | 45 | 1014.5 |
| 20260506193004 | 12 | 257 | 11.3 | 20.9 | 0.00 | 0.00 | 0.00 | 37 | 1013.5 |
| 20260506192503 | 12 | 265 | 6.4 | 20.9 | 0.00 | 0.00 | 0.00 | 38 | 1013.6 |
| 20260506192003 | 12 | 312 | 6.4 | 20.9 | 0.00 | 0.00 | 0.00 | 37 | 1013.6 |
| 20260506191511 | 13 | 278 | 11.3 | 22.5 | 0.00 | 0.03 | 0.03 | 44 | 1014.7 |
| 20260506191506 | 12 | 242 | 8.0 | 20.9 | 0.00 | 0.00 | 0.00 | 37 | 1013.8 |
| 20260506191004 | 12 | 265 | 6.4 | 19.3 | 0.00 | 0.00 | 0.00 | 37 | 1013.7 |
| 20260506190505 | 12 | 225 | 6.4 | 22.5 | 0.00 | 0.00 | 0.00 | 37 | 1013.7 |
| 20260506190014 | 12 | 280 | 9.7 | 24.1 | 0.00 | 0.00 | 0.00 | 36 | 1013.7 |
| 20260506190007 | 13 | 304 | 12.9 | 20.9 | 0.00 | 0.03 | 0.03 | 44 | 1014.5 |
| 20260506185503 | 12 | 275 | 12.9 | 24.1 | 0.00 | 0.00 | 0.00 | 37 | 1013.8 |
| 20260506185006 | 12 | 263 | 11.3 | 19.3 | 0.00 | 0.00 | 0.00 | 37 | 1013.7 |
| 20260506184524 | 12 | 198 | 9.7 | 27.4 | 0.00 | 0.00 | 0.00 | 37 | 1013.8 |
| 20260506184506 | 13 | 329 | 11.3 | 24.1 | 0.00 | 0.03 | 0.03 | 44 | 1014.8 |
| 20260506184006 | 12 | 240 | 8.0 | 27.4 | 0.00 | 0.00 | 0.00 | 37 | 1013.7 |
| 20260506183507 | 12 | 236 | 8.0 | 20.9 | 0.00 | 0.00 | 0.00 | 38 | 1013.6 |
| 20260506183125 | 13 | 295 | 9.7 | 14.5 | 0.00 | 0.03 | 0.03 | 41 | 1014.9 |
| 20260506183022 | 12 | 239 | 3.2 | 24.1 | 0.00 | 0.00 | 0.00 | 39 | 1013.6 |
| 20260506182507 | 12 | 244 | 4.8 | 27.4 | 0.00 | 0.00 | 0.00 | 38 | 1013.6 |
| 20260506182002 | 12 | 267 | 12.9 | 27.4 | 0.00 | 0.00 | 0.00 | 37 | 1013.8 |
| 20260506181507 | 12 | 226 | 6.4 | 27.4 | 0.00 | 0.00 | 0.00 | 37 | 1013.7 |
| 20260506181501 | 13 | 297 | 9.7 | 16.1 | 0.00 | 0.03 | 0.03 | 42 | 1014.9 |
| 20260506181004 | 12 | 277 | 14.5 | 25.7 | 0.00 | 0.00 | 0.00 | 37 | 1013.8 |
| 20260506180503 | 12 | 231 | 8.0 | 22.5 | 0.00 | 0.00 | 0.00 | 37 | 1013.7 |
| 20260506180116 | 12 | 314 | 8.0 | 20.9 | 0.00 | 0.03 | 0.03 | 42 | 1015.1 |
| 20260506180011 | 12 | 281 | 11.3 | 22.5 | 0.00 | 0.00 | 0.00 | 37 | 1013.5 |
| 20260506175504 | 12 | 290 | 6.4 | 20.9 | 0.00 | 0.00 | 0.00 | 37 | 1013.4 |
| 20260506175004 | 12 | 279 | 8.0 | 24.1 | 0.00 | 0.00 | 0.00 | 37 | 1013.7 |
| 20260506174656 | 12 | 313 | 8.0 | 14.5 | 0.00 | 0.03 | 0.03 | 42 | 1015.0 |
| 20260506174516 | 12 | 259 | 12.9 | 24.1 | 0.00 | 0.00 | 0.00 | 37 | 1013.9 |
| 20260506174004 | 12 | 267 | 9.7 | 22.5 | 0.00 | 0.00 | 0.00 | 38 | 1014.0 |
| 20260506173505 | 12 | 289 | 8.0 | 27.4 | 0.00 | 0.00 | 0.00 | 37 | 1013.9 |
| 20260506173124 | 12 | 307 | 3.2 | 9.7 | 0.00 | 0.03 | 0.03 | 42 | 1015.0 |
| 20260506173022 | 12 | 277 | 4.8 | 27.4 | 0.00 | 0.00 | 0.00 | 36 | 1014.0 |
| 20260506172508 | 13 | 213 | 8.0 | 27.4 | 0.00 | 0.00 | 0.00 | 37 | 1014.0 |
| 20260506172008 | 13 | 275 | 9.7 | 19.3 | 0.00 | 0.00 | 0.00 | 37 | 1013.9 |
| 20260506171551 | 12 | 8 | 0.0 | 12.9 | 0.00 | 0.03 | 0.03 | 42 | 1014.6 |
| 20260506171525 | 12 | 232 | 8.0 | 19.3 | 0.00 | 0.00 | 0.00 | 39 | 1014.0 |
| 20260506171009 | 12 | 252 | 8.0 | 25.7 | 0.00 | 0.00 | 0.00 | 38 | 1014.0 |
| 20260506170502 | 12 | 256 | 11.3 | 25.7 | 0.00 | 0.00 | 0.00 | 37 | 1014.2 |
| 20260506170048 | 12 | 304 | 9.7 | 25.7 | 0.00 | 0.03 | 0.03 | 42 | 1013.2 |
| 20260506170011 | 12 | 261 | 12.9 | 25.7 | 0.00 | 0.00 | 0.00 | 37 | 1014.2 |
| 20260506165503 | 12 | 258 | 4.8 | 22.5 | 0.00 | 0.00 | 0.00 | 37 | 1014.1 |
| 20260506165005 | 12 | 279 | 11.3 | 22.5 | 0.00 | 0.00 | 0.00 | 37 | 1014.2 |
| 20260506164648 | 12 | 334 | 9.7 | 20.9 | 0.00 | 0.03 | 0.03 | 38 | 1013.1 |
| 20260506164512 | 12 | 282 | 8.0 | 19.3 | 0.00 | 0.00 | 0.00 | 38 | 1014.1 |
| 20260506164004 | 12 | 244 | 9.7 | 20.9 | 0.00 | 0.00 | 0.00 | 38 | 1014.1 |
| 20260506163503 | 12 | 267 | 11.3 | 20.9 | 0.00 | 0.00 | 0.00 | 39 | 1014.1 |
| 20260506163045 | 12 | 13 | 8.0 | 16.1 | 0.00 | 0.03 | 0.03 | 37 | 1013.8 |
| 20260506163022 | 12 | 223 | 8.0 | 16.1 | 0.00 | 0.00 | 0.00 | 39 | 1013.9 |
| 20260506162507 | 12 | 234 | 8.0 | 16.1 | 0.00 | 0.00 | 0.00 | 37 | 1014.0 |
| 20260506162010 | 12 | 284 | 4.8 | 17.7 | 0.00 | 0.00 | 0.00 | 38 | 1013.9 |
| 20260506161550 | 11 | 344 | 3.2 | 11.3 | 0.03 | 0.03 | 0.03 | 38 | 1014.9 |
| 20260506161524 | 12 | 284 | 8.0 | 17.7 | 0.00 | 0.00 | 0.00 | 38 | 1014.0 |
| 20260506161007 | 12 | 252 | 6.4 | 19.3 | 0.00 | 0.00 | 0.00 | 39 | 1013.9 |
| 20260506160507 | 12 | 295 | 8.0 | 19.3 | 0.00 | 0.00 | 0.00 | 38 | 1013.9 |
| 20260506160039 | 11 | 51 | 4.8 | 12.9 | 0.03 | 0.03 | 0.03 | 39 | 1014.0 |
| 20260506160026 | 11 | 255 | 6.4 | 17.7 | 0.00 | 0.00 | 0.00 | 37 | 1014.0 |
| 20260506155508 | 12 | 333 | 8.0 | 17.7 | 0.00 | 0.00 | 0.00 | 38 | 1014.1 |
| 20260506155003 | 12 | 238 | 6.4 | 19.3 | 0.00 | 0.00 | 0.00 | 39 | 1014.0 |
| 20260506154537 | 11 | 324 | 9.7 | 16.1 | 0.03 | 0.03 | 0.03 | 40 | 1013.6 |
| 20260506154511 | 12 | 294 | 8.0 | 22.5 | 0.00 | 0.00 | 0.00 | 38 | 1014.0 |
| 20260506154003 | 12 | 283 | 6.4 | 22.5 | 0.00 | 0.00 | 0.00 | 37 | 1014.1 |
| 20260506153502 | 11 | 158 | 3.2 | 20.9 | 0.00 | 0.00 | 0.00 | 40 | 1014.0 |
| 20260506153033 | 11 | 20 | 1.6 | 9.7 | 0.03 | 0.03 | 0.03 | 47 | 1013.3 |
| 20260506153016 | 11 | 305 | 3.2 | 20.9 | 0.00 | 0.00 | 0.00 | 38 | 1013.9 |
| 20260506152504 | 11 | 267 | 8.0 | 20.9 | 0.00 | 0.00 | 0.00 | 40 | 1014.1 |
| 20260506152008 | 11 | 113 | 4.8 | 16.1 | 0.00 | 0.00 | 0.00 | 39 | 1014.2 |
| 20260506151531 | 11 | 65 | 4.8 | 12.9 | 0.00 | 0.00 | 0.00 | 52 | 1011.7 |
| 20260506151522 | 11 | 273 | 3.2 | 19.3 | 0.00 | 0.00 | 0.00 | 39 | 1014.1 |
| 20260506151008 | 11 | 263 | 9.7 | 19.3 | 0.00 | 0.00 | 0.00 | 38 | 1014.2 |
| 20260506150508 | 11 | 229 | 3.2 | 22.5 | 0.00 | 0.00 | 0.00 | 39 | 1014.1 |
| 20260506150026 | 11 | 267 | 11.3 | 22.5 | 0.00 | 0.00 | 0.00 | 39 | 1014.2 |
| 20260506145517 | 11 | 237 | 6.4 | 17.7 | 0.00 | 0.00 | 0.00 | 38 | 1014.2 |
| 20260506145010 | 11 | 287 | 8.0 | 17.7 | 0.00 | 0.00 | 0.00 | 40 | 1014.1 |
| 20260506144541 | 11 | 265 | 6.4 | 20.9 | 0.00 | 0.00 | 0.00 | 39 | 1014.2 |
| 20260506144522 | 12 | 302 | 8.0 | 14.5 | 0.00 | 0.00 | 0.00 | 59 | 1015.2 |
| 20260506144004 | 11 | 285 | 4.8 | 20.9 | 0.00 | 0.00 | 0.00 | 39 | 1014.3 |
| 20260506143504 | 11 | 273 | 11.3 | 19.3 | 0.00 | 0.00 | 0.00 | 38 | 1014.3 |
| 20260506143023 | 12 | 296 | 8.0 | 17.7 | 0.00 | 0.00 | 0.00 | 58 | 1014.2 |
| 20260506143015 | 11 | 234 | 8.0 | 17.7 | 0.00 | 0.00 | 0.00 | 38 | 1014.3 |
| 20260506142504 | 11 | 268 | 6.4 | 14.5 | 0.00 | 0.00 | 0.00 | 41 | 1014.3 |
| 20260506142004 | 11 | 204 | 8.0 | 14.5 | 0.00 | 0.00 | 0.00 | 41 | 1014.3 |
| 20260506141517 | 11 | 220 | 6.4 | 14.5 | 0.00 | 0.00 | 0.00 | 39 | 1014.4 |
| 20260506141514 | 12 | 281 | 12.9 | 24.1 | 0.00 | 0.00 | 0.00 | 57 | 1015.3 |
| 20260506141009 | 11 | 200 | 3.2 | 9.7 | 0.00 | 0.00 | 0.00 | 42 | 1014.2 |
| 20260506140505 | 11 | 202 | 3.2 | 9.7 | 0.00 | 0.00 | 0.00 | 41 | 1014.2 |
| 20260506140036 | 11 | 275 | 1.6 | 8.0 | 0.00 | 0.00 | 0.00 | 42 | 1014.2 |
| 20260506140009 | 13 | 278 | 14.5 | 22.5 | 0.00 | 0.00 | 0.00 | 57 | 1014.2 |
| 20260506135507 | 11 | 252 | 0.0 | 8.0 | 0.00 | 0.00 | 0.00 | 43 | 1014.1 |
| 20260506135014 | 11 | 186 | 1.6 | 6.4 | 0.00 | 0.00 | 0.00 | 45 | 1014.1 |
| 20260506134531 | 10 | 195 | 0.0 | 6.4 | 0.00 | 0.00 | 0.00 | 45 | 1014.0 |
| 20260506134503 | 13 | 323 | 6.4 | 16.1 | 0.00 | 0.00 | 0.00 | 56 | 1013.0 |
| 20260506134006 | 10 | 243 | 0.0 | 6.4 | 0.00 | 0.00 | 0.00 | 47 | 1013.9 |
| 20260506133509 | 10 | 202 | 0.0 | 6.4 | 0.00 | 0.00 | 0.00 | 49 | 1013.8 |
| 20260506133101 | 13 | 324 | 6.4 | 16.1 | 0.00 | 0.00 | 0.00 | 56 | 1012.6 |
| 20260506133028 | 10 | 216 | 0.0 | 3.2 | 0.00 | 0.00 | 0.00 | 51 | 1013.7 |
| 20260506132503 | 10 | 197 | 0.0 | 3.2 | 0.00 | 0.00 | 0.00 | 52 | 1013.6 |
| 20260506132003 | 10 | 214 | 0.0 | 3.2 | 0.00 | 0.00 | 0.00 | 53 | 1013.6 |
| 20260506131557 | 13 | 311 | 4.8 | 12.9 | 0.00 | 0.00 | 0.00 | 57 | 1012.5 |
| 20260506131519 | 9 | 244 | 0.0 | 3.2 | 0.00 | 0.00 | 0.00 | 56 | 1013.5 |
| 20260506131007 | 9 | 244 | 0.0 | 3.2 | 0.00 | 0.00 | 0.00 | 57 | 1013.6 |
| 20260506130507 | 9 | 244 | 0.0 | 1.6 | 0.00 | 0.00 | 0.00 | 61 | 1013.7 |
| 20260506130053 | 13 | 306 | 4.8 | 17.7 | 0.00 | 0.00 | 0.00 | 57 | 1012.2 |
| 20260506130018 | 8 | 244 | 0.0 | 3.2 | 0.00 | 0.00 | 0.00 | 63 | 1013.7 |
| 20260506125508 | 8 | 244 | 0.0 | 3.2 | 0.00 | 0.00 | 0.00 | 64 | 1013.6 |
| 20260506125007 | 8 | 244 | 0.0 | 3.2 | 0.00 | 0.03 | 0.00 | 66 | 1013.5 |
| 20260506124548 | 13 | 333 | 9.7 | 19.3 | 0.00 | 0.00 | 0.00 | 57 | 1011.8 |
| 20260506124523 | 7 | 309 | 0.0 | 1.6 | 0.00 | 0.03 | 0.00 | 69 | 1013.3 |
| 20260506124007 | 7 | 309 | 0.0 | 1.6 | 0.00 | 0.03 | 0.00 | 70 | 1013.2 |
| 20260506123507 | 7 | 309 | 0.0 | 1.6 | 0.00 | 0.05 | 0.00 | 71 | 1013.1 |
| 20260506123043 | -17 | 0.0 | 0.0 | 0.00 | 0.00 | 0.00 | 1011.8 | ||
| 20260506123036 | 7 | 309 | 0.0 | 1.6 | 0.00 | 0.05 | 0.00 | 72 | 1013.2 |
| 20260506122510 | 7 | 309 | 0.0 | 1.6 | 0.00 | 0.05 | 0.00 | 73 | 1013.1 |
| 20260506122012 | 7 | 309 | 0.0 | 1.6 | 0.00 | 0.05 | 0.00 | 73 | 1013.1 |
| 20260506121538 | -17 | 0.0 | 0.0 | 0.00 | 0.00 | 0.00 | 1011.5 | ||
| 20260506121512 | 7 | 309 | 0.0 | 1.6 | 0.00 | 0.05 | 0.00 | 74 | 1012.9 |
| 20260506121003 | 6 | 309 | 0.0 | 0.0 | 0.00 | 0.08 | 0.00 | 76 | 1013.0 |
| 20260506120503 | 6 | 309 | 0.0 | 0.0 | 0.00 | 0.08 | 0.00 | 77 | 1012.9 |
| 20260506120032 | -17 | 0.0 | 0.0 | 0.00 | 0.00 | 0.00 | 1011.3 | ||
| 20260506120026 | 6 | 309 | 0.0 | 0.0 | 0.00 | 0.10 | 0.00 | 79 | 1012.9 |
| 20260506115514 | 6 | 309 | 0.0 | 0.0 | 0.00 | 0.10 | 0.00 | 82 | 1012.9 |
| 20260506115006 | 6 | 309 | 0.0 | 0.0 | 0.00 | 0.10 | 0.00 | 84 | 1012.9 |
| 20260506114527 | -17 | 0.0 | 0.0 | 0.00 | 0.00 | 0.00 | 1011.1 | ||
| 20260506114523 | 6 | 309 | 0.0 | 0.0 | 0.00 | 0.13 | 0.00 | 85 | 1012.9 |
| 20260506114012 | 6 | 309 | 0.0 | 0.0 | 0.00 | 0.13 | 0.00 | 85 | 1012.8 |
| 20260506113507 | 5 | 309 | 0.0 | 0.0 | 0.00 | 0.15 | 0.00 | 86 | 1012.7 |
| 20260506113030 | 5 | 309 | 0.0 | 0.0 | 0.00 | 0.15 | 0.00 | 85 | 1012.7 |
| 20260506113023 | -17 | 0.0 | 0.0 | 0.00 | 0.00 | 0.00 | 1011.2 | ||
| 20260506112509 | 5 | 309 | 0.0 | 0.0 | 0.00 | 0.15 | 0.00 | 85 | 1012.7 |
| 20260506112009 | 5 | 309 | 0.0 | 0.0 | 0.00 | 0.15 | 0.00 | 84 | 1012.7 |
| 20260506111527 | 5 | 309 | 0.0 | 0.0 | 0.00 | 0.15 | 0.00 | 83 | 1012.6 |
| 20260506111517 | -17 | 0.0 | 0.0 | 0.00 | 0.00 | 0.00 | 1010.9 | ||
| 20260506111013 | 5 | 309 | 0.0 | 0.0 | 0.00 | 0.15 | 0.00 | 83 | 1012.5 |
| 20260506110511 | 5 | 309 | 0.0 | 0.0 | 0.00 | 0.15 | 0.00 | 82 | 1012.6 |
| 20260506110016 | 5 | 309 | 0.0 | 0.0 | 0.00 | 0.15 | 0.00 | 82 | 1012.5 |
| 20260506110014 | -17 | 0.0 | 0.0 | 0.00 | 0.00 | 0.00 | 1010.6 | ||
| 20260506105505 | 5 | 309 | 0.0 | 0.0 | 0.00 | 0.15 | 0.00 | 82 | 1012.5 |
| 20260506105004 | 5 | 309 | 0.0 | 0.0 | 0.00 | 0.15 | 0.00 | 82 | 1012.4 |
| 20260506104524 | 5 | 309 | 0.0 | 0.0 | 0.00 | 0.15 | 0.00 | 82 | 1012.3 |
| 20260506104507 | -17 | 0.0 | 0.0 | 0.00 | 0.00 | 0.00 | 1010.2 | ||
| 20260506104002 | 5 | 309 | 0.0 | 0.0 | 0.00 | 0.15 | 0.00 | 82 | 1012.2 |
| 20260506103503 | 5 | 309 | 0.0 | 0.0 | 0.00 | 0.15 | 0.00 | 82 | 1012.0 |
| 20260506103003 | 5 | 309 | 0.0 | 0.0 | 0.00 | 0.15 | 0.00 | 81 | 1012.0 |
| 20260506103001 | -17 | 0.0 | 0.0 | 0.00 | 0.00 | 0.00 | 1010.3 | ||
| 20260506102503 | 5 | 309 | 0.0 | 0.0 | 0.00 | 0.15 | 0.00 | 81 | 1011.8 |
| 20260506102004 | 5 | 309 | 0.0 | 0.0 | 0.00 | 0.15 | 0.00 | 80 | 1011.8 |
| 20260506101556 | -17 | 0.0 | 0.0 | 0.00 | 0.00 | 0.00 | 1010.1 | ||
| 20260506101508 | 5 | 309 | 0.0 | 0.0 | 0.00 | 0.15 | 0.00 | 80 | 1011.7 |
| 20260506101002 | 5 | 309 | 0.0 | 0.0 | 0.00 | 0.15 | 0.00 | 79 | 1011.7 |
| 20260506100502 | 5 | 309 | 0.0 | 0.0 | 0.00 | 0.15 | 0.00 | 79 | 1011.7 |
| 20260506100057 | -17 | 0.0 | 0.0 | 0.00 | 0.00 | 0.00 | 1009.7 | ||
| 20260506100017 | 5 | 309 | 0.0 | 0.0 | 0.00 | 0.15 | 0.00 | 78 | 1011.8 |
| 20260506095504 | 5 | 309 | 0.0 | 0.0 | 0.00 | 0.15 | 0.00 | 78 | 1011.8 |
| 20260506095007 | 5 | 309 | 0.0 | 0.0 | 0.00 | 0.15 | 0.00 | 78 | 1011.8 |
| 20260506094548 | -17 | 0.0 | 0.0 | 0.00 | 0.00 | 0.00 | 1009.6 | ||
| 20260506094519 | 5 | 309 | 0.0 | 0.0 | 0.00 | 0.15 | 0.00 | 77 | 1011.8 |
| 20260506094008 | 5 | 309 | 0.0 | 0.0 | 0.00 | 0.15 | 0.00 | 76 | 1011.8 |
| 20260506093508 | 5 | 309 | 0.0 | 0.0 | 0.00 | 0.15 | 0.00 | 75 | 1011.8 |
| 20260506093042 | -17 | 0.0 | 0.0 | 0.00 | 0.00 | 0.00 | 1009.3 | ||
| 20260506093002 | 5 | 309 | 0.0 | 0.0 | 0.00 | 0.15 | 0.00 | 75 | 1011.8 |
| 20260506092503 | 5 | 309 | 0.0 | 0.0 | 0.00 | 0.15 | 0.00 | 75 | 1011.7 |
| 20260506092003 | 5 | 309 | 0.0 | 0.0 | 0.00 | 0.15 | 0.00 | 75 | 1011.6 |
| 20260506091535 | -17 | 0.0 | 0.0 | 0.00 | 0.00 | 0.00 | 1009.4 | ||
| 20260506091505 | 5 | 309 | 0.0 | 0.0 | 0.00 | 0.15 | 0.00 | 74 | 1011.7 |
| 20260506091007 | 6 | 309 | 0.0 | 0.0 | 0.00 | 0.15 | 0.00 | 73 | 1011.9 |
| 20260506090506 | 6 | 309 | 0.0 | 0.0 | 0.00 | 0.15 | 0.00 | 73 | 1011.9 |
| 20260506090029 | -17 | 0.0 | 0.0 | 0.00 | 0.00 | 0.00 | 1009.3 | ||
| 20260506090009 | 6 | 309 | 0.0 | 1.6 | 0.00 | 0.15 | 0.00 | 71 | 1011.9 |
| 20260506085506 | 6 | 309 | 0.0 | 1.6 | 0.00 | 0.15 | 0.00 | 71 | 1012.0 |
| 20260506085002 | 6 | 321 | 0.0 | 0.0 | 0.00 | 0.15 | 0.00 | 71 | 1011.9 |
| 20260506084533 | -17 | 0.0 | 0.0 | 0.00 | 0.00 | 0.00 | 1009.2 | ||
| 20260506084514 | 6 | 321 | 0.0 | 0.0 | 0.00 | 0.15 | 0.00 | 70 | 1011.6 |
| 20260506084003 | 6 | 321 | 0.0 | 0.0 | 0.00 | 0.15 | 0.00 | 69 | 1011.5 |
| 20260506083503 | 6 | 321 | 0.0 | 0.0 | 0.00 | 0.15 | 0.00 | 68 | 1011.4 |
| 20260506083028 | 6 | 321 | 0.0 | 0.0 | 0.00 | 0.15 | 0.00 | 67 | 1011.6 |
| 20260506083020 | -17 | 0.0 | 0.0 | 0.00 | 0.00 | 0.00 | 1009.2 | ||
| 20260506082511 | 6 | 321 | 0.0 | 0.0 | 0.00 | 0.15 | 0.00 | 66 | 1011.5 |
| 20260506082007 | 6 | 321 | 0.0 | 0.0 | 0.00 | 0.15 | 0.00 | 66 | 1011.4 |
| 20260506081517 | -17 | 0.0 | 0.0 | 0.00 | 0.00 | 0.00 | 1009.1 | ||
| 20260506081507 | 7 | 321 | 0.0 | 1.6 | 0.00 | 0.15 | 0.00 | 63 | 1011.5 |
| 20260506081003 | 7 | 321 | 0.0 | 1.6 | 0.00 | 0.15 | 0.00 | 62 | 1011.5 |
| 20260506080504 | 7 | 321 | 0.0 | 0.0 | 0.00 | 0.15 | 0.00 | 62 | 1011.4 |
| 20260506073503 | 7 | 231 | 0.0 | 3.2 | 0.00 | 0.15 | 0.00 | 58 | 1011.4 |
| 20260506073112 | -17 | 0.0 | 0.0 | 0.00 | 0.00 | 0.00 | 1008.7 | ||
| 20260506073016 | 7 | 346 | 0.0 | 4.8 | 0.00 | 0.15 | 0.00 | 57 | 1011.2 |
| 20260506072507 | 7 | 30 | 0.0 | 4.8 | 0.00 | 0.15 | 0.00 | 57 | 1011.2 |
| 20260506072011 | 7 | 38 | 1.6 | 4.8 | 0.00 | 0.15 | 0.00 | 56 | 1011.2 |
| 20260506071553 | -17 | 0.0 | 0.0 | 0.00 | 0.00 | 0.00 | 1008.8 | ||
| 20260506071523 | 8 | 312 | 0.0 | 3.2 | 0.00 | 0.15 | 0.00 | 55 | 1011.2 |
| 20260506071007 | 8 | 317 | 0.0 | 8.0 | 0.00 | 0.15 | 0.00 | 56 | 1011.2 |
| 20260506070510 | 8 | 48 | 0.0 | 8.0 | 0.00 | 0.15 | 0.00 | 56 | 1011.3 |
| 20260506062503 | 8 | 55 | 3.2 | 8.0 | 0.00 | 0.15 | 0.00 | 49 | 1011.1 |
| 20260506062005 | 8 | 48 | 1.6 | 9.7 | 0.00 | 0.15 | 0.00 | 49 | 1011.1 |
| 20260506061532 | -17 | 0.0 | 0.0 | 0.00 | 0.00 | 0.00 | 1009.0 | ||
| 20260506061520 | 9 | 55 | 3.2 | 9.7 | 0.00 | 0.15 | 0.00 | 48 | 1011.0 |
| 20260506061007 | 9 | 37 | 0.0 | 6.4 | 0.00 | 0.15 | 0.00 | 48 | 1011.0 |
| 20260506060509 | 9 | 9 | 1.6 | 6.4 | 0.00 | 0.15 | 0.00 | 47 | 1011.0 |
| 20260506051008 | 10 | 5 | 0.0 | 6.4 | 0.00 | 0.15 | 0.00 | 46 | 1010.7 |
| 20260506050505 | 10 | 37 | 1.6 | 6.4 | 0.00 | 0.15 | 0.00 | 45 | 1010.6 |
| 20260506045006 | 11 | 50 | 1.6 | 6.4 | 0.00 | 0.15 | 0.15 | 45 | 1010.4 |
| 20260506044537 | 11 | 347 | 1.6 | 8.0 | 0.00 | 0.15 | 0.15 | 44 | 1010.7 |
| 20260506044511 | 20 | 318 | 4.8 | 11.3 | 0.00 | 0.00 | 0.00 | 54 | 1008.7 |
| 20260506044008 | 11 | 290 | 3.2 | 8.0 | 0.00 | 0.15 | 0.15 | 44 | 1010.4 |
| 20260506043505 | 11 | 327 | 1.6 | 6.4 | 0.00 | 0.15 | 0.15 | 44 | 1010.8 |
| 20260506043007 | 11 | 5 | 1.6 | 6.4 | 0.00 | 0.15 | 0.15 | 43 | 1010.7 |
| 20260506042503 | 11 | 21 | 1.6 | 8.0 | 0.00 | 0.15 | 0.15 | 44 | 1010.7 |
| 20260506042006 | 11 | 49 | 1.6 | 8.0 | 0.00 | 0.15 | 0.15 | 44 | 1010.7 |
| 20260506041514 | 11 | 22 | 1.6 | 11.3 | 0.00 | 0.15 | 0.15 | 43 | 1010.7 |
| 20260506041503 | 20 | 286 | 8.0 | 11.3 | 0.00 | 0.00 | 0.00 | 54 | 1008.5 |
| 20260506041007 | 11 | 319 | 3.2 | 11.3 | 0.00 | 0.15 | 0.15 | 43 | 1010.8 |
| 20260506040505 | 11 | 12 | 3.2 | 9.7 | 0.00 | 0.15 | 0.15 | 43 | 1010.6 |
| 20260506040101 | 21 | 277 | 6.4 | 12.9 | 0.00 | 0.00 | 0.00 | 54 | 1008.4 |
| 20260506040020 | 11 | 321 | 3.2 | 9.7 | 0.00 | 0.15 | 0.15 | 43 | 1010.6 |
| 20260506035504 | 11 | 333 | 1.6 | 8.0 | 0.00 | 0.15 | 0.15 | 44 | 1010.6 |
| 20260506035007 | 11 | 31 | 3.2 | 9.7 | 0.00 | 0.15 | 0.15 | 44 | 1010.4 |
| 20260506034603 | 21 | 266 | 4.8 | 8.0 | 0.00 | 0.00 | 0.00 | 54 | 1008.0 |
| 20260506034524 | 11 | 325 | 1.6 | 9.7 | 0.00 | 0.15 | 0.15 | 44 | 1010.5 |
| 20260506034007 | 11 | 338 | 1.6 | 11.3 | 0.00 | 0.15 | 0.15 | 45 | 1010.6 |
| 20260506033509 | 11 | 295 | 4.8 | 11.3 | 0.00 | 0.15 | 0.15 | 45 | 1010.4 |
| 20260506033108 | 21 | 262 | 3.2 | 9.7 | 0.00 | 0.00 | 0.00 | 54 | 1007.7 |
| 20260506033030 | 11 | 348 | 1.6 | 6.4 | 0.00 | 0.15 | 0.15 | 47 | 1010.3 |